Location: Espelette
(43.3402°N, 1.4474°W)
Time: 15:25:04
(UTC+00:00)

Cosmos 1697 Rocket - Pass Details

Date: 19 May 2025
Orbit: 830 x 844 km, 71.0° (Epoch: 12 June)

Event Time Altitude Azimuth Distance (km) Brightness Sun altitude
Rises 21:18:21 0° 336° (NNW) 3,405 7.4 -16.4°
Reaches altitude 10° 21:20:49 10° 338° (NNW) 2,468 6.3 -16.6°
Maximum altitude 21:26:29 78° 64° (ENE) 866 2.7 -17.3°
Enters shadow 21:29:25 30° 147° (SSE) 1,476 3.4 -17.6°
